G1 CYXU-ZZZZ

Flight info

Callsign G1
Flight time N/A
Altitude
Route
Aircraft F16

Departure

Time 2026-04-20 23:16
Airport London International Airport (CYXU)

Arrival

Time N/A
Airport ZZZZ
Time Latitude Longitude Altitude Speed Heading
2026-04-20 23:05 43.03566 -81.16272 907 ft 0 kts 73°
2026-04-20 23:06 43.03568 -81.16267 907 ft 0 kts 59°
2026-04-20 23:07 43.03634 -81.16148 906 ft 24 kts 54°
2026-04-20 23:07 43.03676 -81.15928 904 ft 24 kts 79°
2026-04-20 23:07 43.03692 -81.15814 902 ft 10 kts 78°
2026-04-20 23:07 43.03685 -81.15671 901 ft 19 kts 134°
2026-04-20 23:08 43.03575 -81.15543 901 ft 22 kts 139°
2026-04-20 23:08 43.03464 -81.15409 904 ft 20 kts 136°
2026-04-20 23:08 43.03368 -81.15288 903 ft 17 kts 136°
2026-04-20 23:08 43.03279 -81.15178 904 ft 18 kts 133°
2026-04-20 23:09 43.03168 -81.15049 900 ft 26 kts 140°
2026-04-20 23:09 43.03017 -81.14868 898 ft 30 kts 139°
2026-04-20 23:09 43.02867 -81.14689 900 ft 28 kts 139°
2026-04-20 23:09 43.02716 -81.14505 902 ft 30 kts 138°
2026-04-20 23:10 43.02546 -81.14303 900 ft 36 kts 139°
2026-04-20 23:10 43.02377 -81.14100 896 ft 28 kts 140°
2026-04-20 23:10 43.02323 -81.13956 896 ft 12 kts 50°
2026-04-20 23:10 43.02345 -81.13921 895 ft 0 kts 47°
2026-04-20 23:13 43.02352 -81.13911 895 ft 0 kts 47°
2026-04-20 23:14 43.02413 -81.13865 896 ft 18 kts
2026-04-20 23:15 43.02466 -81.13889 896 ft 0 kts 317°
2026-04-20 23:15 43.02483 -81.13908 896 ft 35 kts 322°
2026-04-20 23:15 43.03288 -81.14878 967 ft 282 kts 317°
2026-04-20 23:15 43.04531 -81.17481 1117 ft 387 kts 283°
2026-04-20 23:16 43.03807 -81.21654 1152 ft 494 kts 227°
2026-04-20 23:16 43.00753 -81.23480 1266 ft 473 kts 179°
2026-04-20 23:16 42.97580 -81.23254 1519 ft 449 kts 178°
2026-04-20 23:16 42.94489 -81.23024 1526 ft 441 kts 178°
2026-04-20 23:17 42.91448 -81.22791 1551 ft 433 kts 178°
2026-04-20 23:17 42.88460 -81.22552 1616 ft 427 kts 178°
2026-04-20 23:17 42.85330 -81.22291 1624 ft 465 kts 177°
2026-04-20 23:17 42.82518 -81.21328 1531 ft 323 kts 147°
2026-04-20 23:18 42.81132 -81.19556 1369 ft 274 kts 130°
2026-04-20 23:18 42.79899 -81.17486 1291 ft 291 kts 132°
2026-04-20 23:18 42.78512 -81.15332 1186 ft 305 kts 136°
2026-04-20 23:18 42.77494 -81.13485 925 ft 204 kts 109°
2026-04-20 23:19 42.77278 -81.11845 788 ft 161 kts 87°
2026-04-20 23:19 42.77338 -81.10312 868 ft 204 kts 96°
2026-04-20 23:19 42.75728 -81.08869 1139 ft 413 kts 162°
2026-04-20 23:19 42.72160 -81.07658 1264 ft 631 kts 167°
2026-04-20 23:20 42.67617 -81.06132 1243 ft 743 kts 167°
2026-04-20 23:21 43.03566 -81.16274 907 ft 0 kts 73°
2026-04-20 23:24 43.03576 -81.16238 906 ft 0 kts 65°
2026-04-20 23:24 43.03579 -81.16231 906 ft 12 kts 62°
2026-04-20 23:24 43.03656 -81.16064 904 ft 22 kts 77°
2026-04-20 23:25 43.03692 -81.15835 902 ft 30 kts 78°
2026-04-20 23:25 43.03626 -81.15594 901 ft 28 kts 140°
2026-04-20 23:25 43.03484 -81.15426 903 ft 25 kts 140°
2026-04-20 23:25 43.03348 -81.15266 902 ft 29 kts 139°
2026-04-20 23:26 43.03194 -81.15081 900 ft 30 kts 137°
2026-04-20 23:26 43.03040 -81.14897 898 ft 29 kts 140°
2026-04-20 23:26 43.02906 -81.14739 899 ft 23 kts 139°
2026-04-20 23:26 43.02840 -81.14664 899 ft 0 kts 142°
2026-04-20 23:27 43.02775 -81.14579 899 ft 20 kts 136°
2026-04-20 23:27 43.02680 -81.14464 901 ft 17 kts 139°
2026-04-20 23:27 43.02586 -81.14352 899 ft 19 kts 139°